Regional Weather Roundup
Issued by NWS

Home | Current Version | Previous Version | Text Only | Print | Product List | Glossary Off
Versions: 1 2 3 4 5 6 7 8 9 10 11 12 13 14 15 16 17 18 19 20 21 22 23 24 25 26 27 28 29 30 31 32 33 34 35 36 37 38 39 40 41 42 43 44 45 46 47 48 49 50

000
ASUS45 KBOU 252107
RWRCO

WEATHER ROUNDUP FOR COLORADO
NATIONAL WEATHER SERVICE DENVER/BOULDER CO
200 PM MST SUN JAN 25 2015

NOTE: "FAIR" INDICATES FEW OR NO CLOUDS BELOW 12000 FEET WITH NO
SIGNIFICANT WEATHER AND/OR OBSTRUCTIONS TO VISIBILITY.

COZ001>005-013-030-031-252200-
...NORTHWEST COLORADO...

CITY           SKY/WX    TMP DP  RH WIND       PRES   REMARKS
CRAIG          MOSUNNY   42  27  55 NE7       30.34F
HAYDEN         MOSUNNY   39  25  56 SE5       30.34F
MEEKER         MOSUNNY   39  22  50 NE3       30.33F
MOUNT WERNER   NOT AVBL
STEAMBOAT SPGS PTSUNNY   41  27  57 CALM      30.34F
WALDEN         MOSUNNY   36  25  64 SW13      30.30S
$$

COZ006>008-011-252200-
...WEST CENTRAL VALLEYS...

CITY           SKY/WX    TMP DP  RH WIND       PRES   REMARKS
GRAND JUNCTION MOSUNNY   47  19  33 CALM      30.33F
MONTROSE       MOSUNNY   49  20  31 CALM      30.34F
EAGLE          MOSUNNY   45  27  49 CALM      30.34F
RIFLE          MOSUNNY   47  21  35 CALM      30.33F
DELTA          MOSUNNY   48  18  30 CALM      30.34F
NUCLA          MOSUNNY   52  23  32 NW5       30.34F
$$

COZ017>023-064>068-252200-
...SOUTHWEST COLORADO...

CITY           SKY/WX    TMP DP  RH WIND       PRES   REMARKS
DURANGO        SUNNY     45  22  40 NW3       30.27F
CORTEZ         SUNNY     48  24  39 SW13      30.27F
PAGOSA SPRINGS SUNNY     47  15  27 S3        30.28F
TELLURIDE      NOT AVBL
WOLF CREEK PAS NOT AVBL
$$

COZ009-010-012-014-032>034-037-058>063-252200-
...CENTRAL COLORADO...

CITY           SKY/WX    TMP DP  RH WIND       PRES   REMARKS
ASPEN          PTSUNNY   45  24  43 N6        30.32F
BUENA VISTA    SUNNY     49  21  33 NW21G33   30.24S
COPPER MTN     MOSUNNY   28  23  80 W20G26    30.38F WCI  15
BERTHOUD PASS  NOT AVBL
COTTONWOOD PAS SUNNY     48  14  25 W17G30    30.29S
GUNNISON       MOSUNNY   18   7  62 SE5       30.40F WCI  11
KREMMLING      CLOUDY    41  27  56 SE7       30.34F
LEADVILLE      MOSUNNY   38  20  48 NW14G20   30.31F
MONARCH PASS   MOSUNNY   23  21  93 SW25G32   30.47S WCI   7
SALIDA         SUNNY     53  19  26 SW12G17   30.30F
SUNLIGHT       MOSUNNY   34  27  75 CALM      30.42F
WILKERSON PASS SUNNY     34  18  51 NW16G25   30.33S WCI  23
$$

COZ069>075-252200-
...SAN LUIS VALLEY/SANGRE DE CRISTO MOUNTAINS...

CITY           SKY/WX    TMP DP  RH WIND       PRES   REMARKS
ALAMOSA        SUNNY     47  18  31 N7        30.28F
LA VETA PASS   NOT AVBL
SAGUACHE       MOSUNNY   36  23  60 SE6       30.29F
$$

COZ035-036-038>040-252200-
...NORTHERN COLORADO FRONT RANGE...

CITY           SKY/WX    TMP DP  RH WIND       PRES   REMARKS
DENVER INTL AP PTSUNNY   60  25  26 W7        30.10F
DMNS CITY PARK   N/A     60  24  24 W17       30.10S
AURORA         PTSUNNY   57  25  28 W3        30.12F
FRONT RANGE AP NOT AVBL
ERIE MUNI ARPT MOSUNNY   62  21  21 W12G23    30.08F
BOULDER MUN AP MOSUNNY   59  25  27 W20G30    30.08F
CENTENNIAL     PTSUNNY   57  25  29 NW14      30.12F
BROOMFIELD     NOT AVBL
FORT COLLINS   SUNNY     59  28  31 SE10      30.09F
LONGMONT       SUNNY     66  25  21 CALM      30.09F
$$

COZ041-046-047-076>085-087-088-252200-
...PIKES PEAK/PALMER DIVIDE AND SOUTHERN FOOTHILLS...

CITY           SKY/WX    TMP DP  RH WIND       PRES   REMARKS
COLO. SPRINGS  PTSUNNY   52  24  33 S5        30.17F
A. F. ACADEMY  SUNNY     50  24  35 VRB1      30.16S
ELLICOTT       SUNNY    N/A N/A N/A SW7       30.16S
FALCON         SUNNY     50  26  39 S3        30.18S
FORT CARSON    SUNNY     52  28  40 S5        30.15F
LIMON          MOSUNNY   54  25  32 N10G22    30.13S
MONUMENT HILL  MOSUNNY   48  28  46 NW7       30.16S
TRINIDAD       SUNNY     52  30  43 S8        30.17F
$$

COZ042>045-048>051-090-091-252200-
...NORTHEAST COLORADO...

CITY           SKY/WX    TMP DP  RH WIND       PRES   REMARKS
GREELEY ARPT   SUNNY     55  30  38 S3        30.07F
AKRON          PTSUNNY   47  32  56 W12       30.10S
BURLINGTON     SUNNY     52  31  44 N17       30.08F
WRAY           PTSUNNY   56  32  40 W13G21    30.07F
STERLING       PTSUNNY   55  37  50 N10       30.06F
HOLYOKE        SUNNY     59  32  36 NW17G24   30.06F
FORT MORGAN    MOSUNNY   52  27  38 CALM      30.09F
$$

COZ086-089-092>099-252200-
...SOUTHEAST COLORADO...

CITY           SKY/WX    TMP DP  RH WIND       PRES   REMARKS
PUEBLO         SUNNY     56  27  32 CALM      30.13F
LA JUNTA       SUNNY     58  30  34 SW7       30.14F
LAMAR          SUNNY     57  31  37 W12       30.12F
SPRINGFIELD      N/A     56  29  35 NW14G21   30.14F
$$



USA.gov is the U.S. government's official web portal to all federal, state and local government web resources and services.